Tracking 28790 objects as of 19-Apr-2024
HD Live streaming from Space Station
objects crossing your sky now

OPS 4682 DEB

Track OPS 4682 DEB now!
10-day predictions


NORAD ID: 20031
Int'l Code: 1965-027BB
Perigee: 1,254.5 km
Apogee: 1,304.1 km
Inclination: 90.2 °
Period: 111.0 minutes
Semi major axis: 7650 km
RCS: 0.0719 m2 (small)
Launch date: April 3, 1965
Source: United States (US)
Launch site: AIR FORCE WESTERN TEST RANGE (AFWTR)

Note: This is SATELLITE DEBRIS
Your satellite tracking list
Your tracking list is empty




NASA's NSSDC Master Catalog

Two Line Element Set (TLE):
1 20031U 65027BB  24109.68097750  .00000040  00000-0  11250-3 0  9990
2 20031  90.2431 342.3575 0032434 337.8576  86.4056 12.97426640665019
Source of the keplerian elements: AFSPC